Temperature
6 6 6 7 8 8 8 8 9 10 11 11 11 11 12 13 13 13 14 15 16 16 16 17 17 17 17 16 16 16 16 16 16 15 15 15 15 15 14 14 14 14 14 14
5 6 7 8 9 9 9 8 9 10 11 11 11 11 11 12 13 14 14 15 16 16 16 16 16 16 16 16 16 16 16 16 16 15 15 15 15 15 14 14 14 14 14 14
5 6 7 8 8 8 8 8 8 9 10 10 11 11 11 11 12 13 14 15 15 15 16 16 16 16 16 16 16 16 16 16 15 15 15 15 14 14 14 14 14 14 14 14
6 7 7 8 8 8 8 9 9 9 9 9 10 9 9 10 10 11 12 14 15 15 15 15 15 15 15 15 15 15 15 15 15 15 14 14 14 14 14 14 14 14 14 13
5 6 7 7 8 9 8 9 9 9 9 8 8 8 8 9 9 10 11 13 14 15 15 15 15 14 14 14 14 14 14 14 14 14 14 14 14 13 13 13 13 13 13 13
6 6 7 8 8 9 8 8 8 7 8 8 8 8 8 8 9 10 11 13 14 14 14 14 13 13 13 13 13 13 13 13 13 13 13 13 13 13 12 12 12 12 12 12
6 6 6 7 8 8 8 7 7 7 7 7 7 8 8 9 9 9 10 12 13 13 13 13 13 12 12 12 12 12 12 12 12 12 12 12 12 12 11 11 11 11 11 11
5 6 6 7 7 7 7 7 7 7 7 6 7 7 8 9 9 10 10 11 11 11 12 12 12 12 12 11 11 11 11 11 11 11 11 11 11 10 10 10 10 10 10 10
5 6 6 6 7 7 7 7 7 6 6 6 6 6 6 8 8 8 9 9 10 10 11 11 11 11 11 11 10 10 10 10 10 10 10 10 10 9 9 9 9 9 9 9
6 6 6 7 7 7 7 6 6 6 6 7 7 7 7 9 8 8 7 7 8 9 10 10 10 10 10 10 10 10 10 9 9 9 9 9 8 8 8 8 8 8 8 7
6 6 6 6 7 7 6 7 6 5 5 6 7 7 8 8 8 7 6 7 8 9 9 10 10 10 10 9 9 9 9 9 8 8 8 8 8 7 7 7 7 7 7 7
5 5 6 6 6 7 7 7 6 6 5 4 5 7 8 7 6 6 7 8 9 9 10 10 10 10 9 9 9 9 8 8 8 7 7 7 7 7 6 6 6 6 6 6
6 5 5 6 6 6 6 6 6 6 5 4 5 7 8 7 7 7 8 8 9 9 10 10 9 9 9 9 8 8 8 7 7 7 6 6 6 6 6 6 6 5 5 5
6 5 5 6 6 5 5 6 6 5 5 5 4 6 8 8 7 7 8 9 9 10 10 10 9 9 9 8 8 7 7 7 6 6 6 5 5 5 5 5 5 5 5 5
6 5 5 5 6 5 5 5 5 5 5 5 6 6 7 8 8 8 9 9 9 9 10 10 10 9 9 8 8 7 7 6 5 5 5 5 4 4 4 4 4 4 4 4
5 6 6 6 6 5 5 5 5 5 6 5 6 6 7 8 8 8 9 9 9 10 10 10 10 9 9 8 8 7 6 5 5 4 4 4 4 3 3 3 3 3 3 3
4 5 5 5 5 6 5 5 5 5 5 5 6 7 7 7 7 8 9 9 10 11 11 10 10 10 9 8 7 6 5 5 4 4 3 3 3 3 3 2 2 2 2 2
4 4 4 4 5 5 6 7 6 5 6 5 6 6 6 7 9 10 10 10 10 11 11 10 10 9 9 8 7 6 5 4 3 3 2 2 2 2 2 2 1 1 2 2
4 5 4 4 4 4 6 6 6 5 5 6 6 6 6 7 7 8 9 10 10 10 10 10 10 9 8 7 6 5 4 4 3 2 2 2 2 2 1 1 1 1 1 1
4 4 4 4 5 5 6 7 7 6 6 7 6 5 6 6 5 6 9 10 10 10 10 9 9 8 7 6 5 5 4 3 3 2 2 1 1 1 1 1 1 1 1 1
4 4 4 4 5 5 6 6 7 6 7 7 7 6 6 5 7 8 9 9 9 9 9 8 8 7 7 6 5 4 3 3 2 1 1 1 1 1 1 1 0 0 0 0
4 4 4 4 5 5 6 6 6 6 7 7 7 7 7 7 7 8 8 8 8 8 8 7 7 6 6 5 4 4 3 2 1 1 1 1 1 1 1 0 0 0 0 -0
3 4 4 4 5 6 7 7 8 7 7 8 8 8 7 7 7 8 8 7 7 7 7 6 6 5 5 4 3 3 2 2 1 1 1 1 1 1 1 0 0 -0 -0 -0
3 3 3 4 4 5 7 7 8 8 8 8 8 8 7 7 7 7 7 7 7 6 6 6 5 5 4 4 3 3 2 2 1 1 1 1 1 1 0 0 -0 -0 -0 -0
3 3 3 3 4 5 7 7 7 7 7 7 7 7 7 7 7 7 7 6 6 6 5 5 5 4 4 3 3 2 2 2 1 1 1 1 1 0 0 -0 -0 -0 -0 -1
2 3 3 4 5 4 6 7 7 7 7 7 7 7 7 7 7 6 6 6 6 5 5 5 4 4 4 3 3 2 2 2 2 1 1 1 1 0 0 -0 -0 -0 -1 -1
Wind_Speed
3 3 7 9 7 3 7 7 5 4 3 7 9 8 6 5 6 8 8 7 7 6 2 1 2 3 3 3 3 3 3 2 2 2 2 2 2 2 2 3 5 5 6 7
3 5 6 5 5 4 6 7 6 2 2 4 5 7 6 6 7 9 10 10 9 6 4 3 2 3 3 4 4 3 3 2 2 2 2 2 2 1 1 0 1 2 3 4
5 4 6 7 7 6 4 7 7 5 3 2 2 4 7 8 6 7 8 8 8 10 9 7 5 4 4 4 4 4 4 3 3 1 2 2 2 2 1 1 1 3 3 3
2 3 7 8 6 6 4 5 6 6 6 2 3 5 8 8 9 11 12 10 10 9 8 7 7 6 5 4 4 5 5 5 4 3 2 2 2 1 0 1 1 3 4 4
3 5 8 8 6 6 4 4 5 4 5 1 1 3 8 5 10 14 13 12 10 10 10 10 8 7 6 5 5 5 6 6 5 5 4 3 2 1 1 1 2 3 4 6
1 1 3 4 4 5 5 6 6 5 3 4 6 6 8 7 10 9 9 11 11 10 10 9 7 7 6 5 5 5 7 6 6 6 5 4 3 2 2 2 3 3 3 3
3 1 1 2 6 3 4 6 3 2 3 6 5 6 10 9 9 9 9 9 9 10 11 11 10 9 7 6 5 5 6 6 5 6 6 5 4 3 2 2 2 3 3 3
4 2 1 1 4 6 5 6 6 6 5 3 3 8 9 7 6 7 8 7 7 9 10 11 10 9 8 7 6 6 6 5 5 5 5 5 4 3 3 3 3 3 3 3
5 2 2 2 2 7 6 4 4 4 2 2 6 7 9 6 6 6 5 5 9 10 10 10 9 8 8 7 6 6 6 5 5 4 5 5 5 5 4 4 4 4 4 4
4 4 2 2 3 2 3 7 5 5 5 4 5 6 6 7 7 6 5 7 8 9 9 9 8 7 6 6 6 6 6 5 4 4 4 4 5 5 5 5 6 5 5 5
3 4 4 3 5 7 4 4 4 4 4 5 4 7 6 7 7 8 7 7 8 9 9 8 7 7 7 6 6 6 5 5 5 4 5 5 5 5 5 5 5 5 5 6
3 3 3 2 0 2 5 6 7 5 5 4 3 7 5 5 7 6 6 6 7 8 8 7 8 7 7 7 6 6 5 5 4 4 5 5 5 5 5 5 5 5 6 6
5 5 4 1 1 2 4 5 6 4 4 5 5 7 4 3 3 2 5 7 7 8 7 7 7 7 7 7 6 6 5 5 5 5 5 5 5 5 5 5 5 5 6 6
5 4 5 7 4 6 5 6 8 7 5 6 9 9 9 7 4 3 5 7 8 8 8 8 7 7 7 7 7 6 5 5 5 5 5 5 4 5 5 5 5 6 6 6
4 3 3 3 3 4 6 8 10 12 10 10 9 10 12 8 7 6 6 7 7 7 8 9 9 8 7 7 7 6 6 5 6 6 5 5 5 5 5 5 5 6 6 7
2 2 1 1 1 4 5 8 11 13 11 12 12 15 10 7 5 6 7 8 9 10 10 9 9 9 9 9 8 7 7 6 6 6 6 6 6 5 5 5 6 6 6 6
2 4 2 2 2 2 7 10 13 8 8 9 15 15 6 6 8 9 10 10 12 12 11 11 11 11 10 10 9 9 8 7 7 6 6 6 6 6 5 6 6 6 6 6
5 4 3 1 1 6 7 3 7 8 9 11 10 9 8 11 10 7 9 11 11 10 10 9 9 9 8 8 8 8 8 7 7 7 6 7 7 6 6 6 6 5 4 5
5 5 3 2 3 7 8 4 5 6 7 8 11 12 9 6 3 5 7 9 10 9 7 7 7 7 8 10 9 9 8 7 7 7 7 7 7 7 7 6 5 4 4 4
3 4 4 3 2 5 6 3 3 3 5 4 5 8 6 5 4 6 4 5 5 4 4 6 7 7 9 9 10 10 9 8 8 7 7 7 7 7 7 6 5 4 4 4
3 2 4 4 4 7 7 3 4 2 5 4 3 4 4 7 6 2 3 4 4 4 5 7 8 7 8 9 10 9 8 8 7 7 7 7 6 6 6 6 4 5 4 4
6 5 5 5 5 8 3 4 5 6 4 3 3 2 3 3 2 3 4 4 5 5 5 6 6 6 6 8 9 8 8 7 7 7 7 7 6 6 6 6 5 5 5 4
6 6 5 7 8 5 2 5 4 2 3 3 2 1 2 3 2 2 3 4 4 4 5 5 6 6 5 6 8 8 7 8 8 8 7 7 6 5 6 6 6 5 4 4
4 1 2 4 7 6 6 5 4 3 3 3 1 1 3 3 3 3 3 3 3 4 5 5 6 6 6 6 6 7 7 9 9 9 8 7 7 6 6 5 5 5 5 5
4 1 2 5 7 7 6 4 4 3 1 1 0 1 2 3 3 3 3 3 3 3 4 5 6 7 7 7 7 7 8 9 9 8 8 7 7 6 6 5 5 6 6 6
4 5 4 6 5 4 6 6 4 3 2 2 1 1 1 2 2 2 2 2 2 3 4 5 6 6 6 7 7 8 9 10 9 8 8 7 6 6 5 5 4 8 8 10
Wind_Direction
131 157 193 193 185 146 142 141 160 188 186 175 204 220 227 216 209 221 227 227 226 225 225 86 72 88 101 98 116 131 138 143 137 135 157 179 207 213 212 222 233 237 239 234
126 207 202 168 174 149 146 154 163 153 154 168 199 233 249 232 219 218 220 223 221 214 194 167 120 88 99 105 105 107 111 102 113 145 151 161 161 184 195 214 249 264 261 250
165 188 171 169 175 171 179 171 166 156 117 68 125 265 245 248 235 230 226 222 216 206 198 185 162 135 113 101 96 99 90 81 69 89 99 80 70 47 32 4 347 343 325 299
188 187 163 164 177 165 187 178 156 142 138 197 174 244 256 237 246 240 233 221 213 204 191 184 171 154 138 120 100 93 86 74 58 64 99 134 159 193 260 334 342 351 5 358
193 171 164 172 178 157 161 138 131 128 127 113 185 221 274 238 239 242 235 225 215 199 186 182 173 157 137 121 107 97 87 70 58 60 78 100 106 125 10 10 14 11 10 15
121 107 149 161 144 148 133 91 72 66 96 226 206 199 267 228 222 239 233 221 210 194 180 168 152 137 123 111 102 97 90 71 59 63 65 81 93 80 51 25 13 7 4 8
86 56 39 122 121 126 132 118 116 147 196 238 188 206 248 241 228 227 239 233 210 186 171 163 157 151 142 129 114 103 97 78 61 64 61 62 68 70 62 34 22 14 10 5
144 162 176 121 153 158 162 148 161 179 199 242 203 231 253 254 264 258 257 240 197 179 171 167 162 154 147 139 127 116 107 93 73 68 62 53 53 59 51 40 40 34 22 7
153 168 101 99 98 134 142 166 147 120 116 200 245 275 299 270 275 268 253 207 187 177 170 163 156 151 147 142 137 133 122 106 87 78 75 61 52 56 55 47 45 38 23 24
139 145 139 116 92 55 140 143 121 137 165 230 264 261 251 274 272 273 243 209 186 169 162 157 154 151 147 140 131 124 120 114 100 85 78 79 61 59 59 58 51 43 34 33
127 135 139 146 182 176 144 152 143 149 172 183 248 266 229 241 264 262 244 209 179 169 167 163 157 150 140 133 132 128 124 116 106 96 86 82 70 65 64 62 54 50 47 44
147 129 145 182 209 181 178 177 158 171 206 193 210 269 278 263 269 248 222 188 175 172 169 161 154 147 146 146 144 140 134 127 121 112 99 90 81 75 71 65 58 57 57 53
149 131 124 111 219 187 200 187 177 149 145 176 199 261 298 324 323 218 191 182 176 173 165 159 160 163 164 161 157 150 145 139 130 119 109 99 91 87 81 74 67 64 64 62
136 136 173 189 208 181 191 197 183 173 200 215 225 253 286 301 302 258 204 192 186 183 177 175 179 179 173 168 164 158 152 148 140 129 122 114 108 104 97 89 80 71 67 67
123 170 206 228 218 175 201 202 196 207 213 220 236 238 254 258 257 241 217 198 190 192 191 191 191 184 176 171 168 163 159 156 147 139 134 131 123 114 105 96 86 78 73 71
104 149 146 307 249 212 238 225 213 221 227 236 253 260 250 244 234 227 215 201 202 207 206 201 194 186 185 180 175 168 165 161 152 150 148 142 134 125 115 105 95 88 80 73
143 142 146 272 309 350 261 225 210 208 209 205 236 250 237 233 230 226 217 208 211 212 208 202 199 195 189 183 175 173 168 158 156 157 154 150 143 136 128 119 106 98 90 83
152 145 152 188 76 246 248 237 201 216 239 225 241 256 236 232 238 235 215 207 214 214 209 205 195 185 176 168 163 158 155 159 162 161 158 154 150 143 135 127 118 111 102 93
163 152 151 163 239 281 294 265 189 198 265 236 238 254 255 245 256 270 229 209 212 210 201 192 178 167 160 162 159 154 158 162 165 169 167 164 158 153 148 143 137 128 118 106
126 139 155 168 220 256 262 282 183 139 288 276 234 254 247 168 206 258 219 186 180 159 151 149 142 142 154 159 154 156 165 170 178 176 169 162 159 157 154 151 143 133 130 125
145 168 193 195 233 267 264 264 134 172 263 294 266 259 213 195 215 237 125 122 126 122 125 133 140 151 161 157 156 164 171 183 178 163 157 155 155 154 150 147 143 142 137 129
182 187 197 188 218 255 260 143 182 230 273 295 294 278 205 197 150 112 112 117 119 117 123 135 142 148 152 158 161 170 182 176 158 155 156 157 156 156 156 152 151 149 148 148
205 199 194 199 221 250 240 222 252 251 270 284 284 290 155 148 148 131 129 135 138 141 144 145 150 152 160 170 171 178 179 161 156 157 163 163 161 162 162 164 164 163 168 174
279 230 213 260 269 273 272 265 274 260 254 279 260 186 157 156 150 145 146 152 156 161 164 159 159 171 183 185 184 180 167 163 163 169 172 171 171 172 172 176 178 180 186 192
266 242 247 265 282 303 298 278 279 288 285 298 14 159 165 157 155 163 171 174 177 179 175 174 184 194 196 188 188 178 170 169 172 176 179 179 180 181 186 192 199 197 204 197
219 207 212 247 257 253 283 304 303 273 265 237 198 158 87 147 160 155 172 179 180 190 186 192 200 204 199 191 192 184 178 177 179 185 187 187 186 187 188 193 216 231 222 230
Height
1487 1490 1490 1490 1492 1494 1498 1502 1505 1505 1503 1506 1508 1508 1507 1507 1509 1510 1511 1512 1513 1515 1517 1519 1521 1523 1525 1527 1529 1531 1533 1534 1536 1537 1539 1540 1541 1542 1542 1543 1544 1544 1545 1545
1490 1490 1489 1490 1492 1494 1497 1502 1504 1504 1503 1505 1508 1508 1506 1506 1506 1506 1507 1508 1510 1512 1514 1516 1518 1520 1522 1524 1526 1528 1530 1531 1533 1534 1535 1536 1537 1538 1539 1539 1540 1540 1540 1540
1488 1488 1488 1490 1493 1496 1498 1502 1504 1505 1505 1505 1508 1509 1506 1503 1503 1503 1504 1505 1506 1508 1510 1513 1515 1517 1519 1521 1523 1524 1526 1528 1529 1530 1531 1532 1533 1534 1535 1535 1535 1535 1535 1535
1488 1487 1488 1491 1493 1495 1499 1499 1501 1503 1508 1513 1511 1517 1507 1502 1500 1498 1498 1499 1501 1504 1507 1509 1511 1513 1516 1517 1519 1521 1522 1524 1525 1526 1527 1528 1529 1529 1530 1530 1530 1530 1530 1530
1487 1486 1488 1491 1492 1494 1497 1497 1501 1504 1509 1514 1514 1517 1508 1500 1499 1493 1491 1493 1495 1499 1502 1505 1508 1510 1512 1514 1516 1517 1519 1520 1521 1522 1523 1524 1524 1525 1525 1525 1525 1525 1525 1524
1486 1486 1488 1489 1491 1493 1496 1500 1505 1509 1512 1516 1514 1517 1508 1499 1491 1487 1486 1487 1489 1493 1497 1501 1504 1507 1509 1511 1513 1514 1516 1517 1518 1518 1519 1519 1520 1520 1520 1520 1520 1520 1519 1519
1486 1488 1488 1488 1492 1495 1497 1504 1511 1513 1515 1514 1511 1510 1499 1487 1483 1482 1481 1482 1484 1487 1491 1495 1499 1503 1506 1508 1510 1512 1513 1514 1514 1515 1515 1515 1516 1515 1515 1515 1515 1515 1514 1514
1488 1490 1489 1489 1490 1494 1497 1501 1509 1513 1514 1516 1512 1508 1492 1481 1479 1478 1478 1479 1480 1483 1487 1491 1495 1500 1503 1506 1508 1509 1510 1511 1511 1511 1512 1512 1512 1512 1511 1511 1511 1510 1510 1509
1487 1490 1488 1489 1489 1492 1497 1501 1503 1511 1514 1515 1511 1502 1491 1478 1476 1475 1475 1475 1476 1480 1484 1489 1493 1497 1501 1503 1505 1507 1507 1508 1508 1508 1508 1508 1508 1508 1508 1507 1507 1506 1506 1505
1483 1487 1488 1489 1490 1493 1494 1498 1506 1512 1513 1510 1504 1501 1493 1480 1477 1475 1474 1474 1475 1479 1483 1488 1492 1496 1499 1501 1503 1504 1505 1505 1506 1506 1506 1505 1505 1505 1504 1504 1504 1503 1503 1502
1483 1486 1489 1490 1490 1492 1496 1498 1501 1507 1510 1511 1506 1496 1481 1478 1475 1474 1473 1473 1475 1478 1483 1487 1491 1494 1497 1499 1500 1502 1502 1503 1503 1503 1503 1502 1502 1502 1502 1501 1501 1501 1500 1499
1482 1486 1489 1490 1490 1490 1492 1493 1498 1504 1508 1511 1512 1496 1475 1475 1473 1472 1471 1473 1476 1479 1483 1487 1490 1493 1495 1497 1498 1499 1500 1500 1500 1500 1500 1500 1500 1499 1499 1499 1499 1498 1498 1497
1481 1486 1491 1492 1494 1492 1491 1491 1492 1497 1504 1511 1509 1492 1474 1473 1471 1471 1472 1473 1476 1480 1483 1486 1488 1491 1493 1494 1496 1496 1497 1497 1497 1497 1497 1497 1497 1497 1497 1496 1496 1496 1495 1495
1477 1484 1487 1487 1485 1486 1488 1489 1490 1494 1497 1500 1499 1487 1476 1472 1471 1471 1472 1473 1476 1478 1481 1484 1486 1488 1490 1492 1493 1493 1494 1494 1494 1494 1494 1494 1494 1494 1494 1494 1494 1494 1493 1493
1476 1481 1482 1483 1482 1483 1484 1485 1487 1488 1488 1490 1484 1483 1473 1471 1470 1470 1470 1472 1474 1476 1479 1481 1483 1485 1487 1488 1490 1490 1491 1491 1491 1491 1491 1491 1492 1492 1492 1492 1492 1492 1492 1491
1477 1480 1481 1481 1480 1482 1482 1481 1482 1482 1482 1481 1479 1473 1467 1467 1467 1467 1468 1469 1471 1473 1475 1478 1480 1482 1484 1485 1486 1487 1488 1488 1488 1488 1488 1489 1489 1489 1490 1490 1490 1490 1491 1490
1479 1481 1484 1486 1482 1479 1481 1473 1474 1476 1473 1474 1472 1464 1463 1464 1464 1463 1464 1465 1467 1469 1471 1474 1476 1478 1480 1481 1483 1484 1485 1485 1485 1486 1486 1486 1487 1487 1488 1488 1489 1489 1490 1490
1479 1482 1485 1486 1484 1486 1472 1465 1465 1468 1466 1465 1462 1459 1458 1458 1457 1458 1459 1461 1462 1465 1468 1471 1473 1475 1477 1478 1479 1481 1481 1482 1482 1483 1483 1484 1484 1485 1486 1487 1488 1488 1489 1489
1475 1479 1484 1487 1486 1480 1468 1463 1463 1465 1463 1458 1458 1456 1455 1455 1455 1455 1455 1457 1459 1462 1465 1467 1470 1471 1473 1474 1476 1477 1478 1478 1479 1480 1480 1481 1482 1483 1484 1485 1486 1487 1488 1488
1474 1476 1481 1484 1482 1479 1467 1460 1459 1462 1462 1455 1454 1453 1452 1453 1457 1453 1452 1453 1456 1459 1462 1464 1466 1467 1469 1470 1472 1473 1474 1475 1476 1477 1478 1479 1480 1481 1483 1484 1485 1486 1486 1487
1475 1477 1478 1479 1478 1473 1462 1458 1459 1466 1461 1453 1451 1450 1449 1450 1451 1451 1450 1452 1454 1456 1459 1461 1462 1464 1466 1467 1468 1470 1471 1472 1474 1475 1476 1477 1478 1480 1481 1482 1484 1484 1485 1486
1473 1475 1475 1475 1475 1472 1458 1458 1460 1458 1453 1452 1450 1449 1448 1448 1449 1449 1450 1451 1453 1455 1457 1458 1460 1461 1463 1464 1466 1467 1468 1470 1471 1472 1473 1475 1477 1478 1479 1481 1482 1483 1484 1484
1470 1469 1469 1469 1465 1458 1456 1455 1455 1454 1453 1451 1450 1449 1449 1449 1449 1449 1450 1451 1452 1454 1455 1456 1458 1459 1460 1462 1463 1464 1466 1467 1468 1470 1471 1473 1475 1476 1478 1479 1480 1481 1482 1482
1466 1465 1465 1464 1458 1455 1454 1453 1452 1452 1451 1450 1450 1449 1449 1449 1449 1450 1450 1451 1452 1453 1454 1455 1456 1457 1458 1459 1460 1462 1463 1464 1465 1467 1469 1471 1472 1474 1476 1477 1478 1479 1480 1480
1466 1465 1464 1462 1457 1453 1451 1451 1450 1450 1449 1449 1449 1449 1449 1449 1449 1450 1450 1450 1451 1451 1452 1453 1453 1454 1455 1456 1457 1458 1460 1461 1463 1464 1466 1468 1470 1472 1473 1474 1476 1477 1477 1478
1463 1463 1463 1459 1455 1454 1451 1450 1449 1448 1448 1448 1448 1448 1448 1448 1448 1448 1449 1449 1449 1449 1450 1450 1451 1451 1452 1453 1454 1455 1457 1458 1460 1461 1463 1465 1467 1469 1470 1472 1473 1473 1474 1475